New Orleans, Louisiana
Traffic Map
Current Weather Conditions
New Orleans, Louisiana
Clear
Clear
22°
Feels Like: 22°
Wind Chill: 22° Ceiling: Unl
Heat Index: 22° Visibility: 10mi
Dew Point: Wind: 5mph
Humidity: 35% Direction: 360° (N)
Pressure: 30.09in Gusts: 0mph
Raw Report DataKVSH 241755Z AUTO 36004KT 10SM CLR 22/06 A3009 RMK AO1 10220 20150 57010
Traffic Incident Summary
Active as of:
Severity:
Category:
InformationThere was an issue retrieving the traffic information for this location. Please try a different location or try again shortly.
Advertisements
Track Severe Weather on mobile